Zurück zum Katalog

FENGYUN 1C DEB

AktivSSO
NORAD 31996·DEBRIS·🇨🇳 China

Gestartet May 10, 1999 von Taiyuan Satellite Launch Center

Loading…

Nächste Überflüge (nächste 24 Stunden)

TLE

AlterndSource: Space-Track

Epoche: Sep 11, 2026, 00:23 UTC

1 31996U 99025CPZ 26254.01614681  .00001628  00000-0  16894-2 0  9996
2 31996  99.2977 178.6083 0292454 144.7704 217.3160 13.59849519583874

Verfolge FENGYUN 1C DEB in Echtzeit mit AllMySat

Download on the App Store